Weather History for Charlotte, NC

Change the Weather History Date:

Friday, March 8, 2013

  Actual Average Record
Temperature  
Mean Temperature 41 °F 49 °F  
Max Temperature 58 °F 61 °F 84 °F (1974)
Min Temperature 23 °F 37 °F 16 °F (1920)
Degree Days  
Heating Degree Days 24 16  
Month to date heating degree days 202 136  
Since 1 July heating degree days 2607 2835  
Cooling Degree Days 0 0  
Month to date cooling degree days 0 0  
Year to date cooling degree days 0 0  
Moisture  
Dew Point 22 °F    
Average Humidity 53    
Maximum Humidity 81    
Minimum Humidity 24    
Precipitation  
Precipitation 0.00 in 0.14 in 1.87 in (1942)
Month to date precipitation 0.55 1.07  
Year to date precipitation 8.30 7.80  
Snow  
Snow 0.00 in 0.00 in 0.50 in (1947)
Month to date snowfall T 0.2  
Since 1 July snowfall 2.7 3.9  
Snow Depth 0.00 in    
Sea Level Pressure  
Sea Level Pressure 30.27 in    
Wind  
Wind Speed 8 mph (NNW)    
Max Wind Speed 17 mph    
Max Gust Speed 23 mph    
Visibility 10 miles    
Events      
T = Trace of Precipitation, MM = Missing Value Source: NWS Daily Summary

Daily Weather History Graph

Daily Weather History Graph

Search for Another Location

Airport:

Trip Planner

Search our weather history database for the weather conditions in past years. The results will help you decide how hot, cold, wet, or windy it might be!

Date:

Astronomy

Mar. 08, 2013 Rise Set
Actual Time 6:43 AM EST 6:25 PM EST
Civil Twilight 6:18 AM EST 6:51 PM EST
Nautical Twilight 5:49 AM EST 7:20 PM EST
Astronomical Twilight 5:19 AM EST 7:49 PM EST
Moon 4:21 AM EST (3/8) 3:24 PM EST (3/8)
Length of Visible Light 12h 32m
Length of Day
11h 41m
Waning Crescent, 12% of the Moon is Illuminated
Mar 8
Waning Crescent
Mar 11
New
Mar 19
First Quarter
Mar 27
Full
Apr 3
Last Quarter

Hourly Weather History & Observations

Time (EST) Temp. Windchill Dew Point Humidity Pressure Visibility Wind Dir Wind Speed Gust Speed Precip Events Conditions
12:52 AM 35.1 °F 26.4 °F 21.9 °F 59% 30.26 in 10.0 mi North 12.7 mph 18.4 mph N/A   Clear
1:52 AM 33.1 °F 26.1 °F 21.0 °F 61% 30.26 in 10.0 mi North 8.1 mph - N/A   Clear
2:52 AM 30.9 °F 25.2 °F 21.0 °F 67% 30.26 in 10.0 mi North 5.8 mph - N/A   Clear
3:52 AM 32.0 °F 27.5 °F 21.0 °F 64% 30.25 in 10.0 mi NW 4.6 mph - N/A   Clear
4:52 AM 27.0 °F 21.6 °F 21.9 °F 81% 30.27 in 10.0 mi NW 4.6 mph - N/A   Clear
5:52 AM 26.1 °F 21.9 °F 21.9 °F 84% 30.29 in 9.0 mi NNW 3.5 mph - N/A   Clear
6:52 AM 26.1 °F 21.9 °F 21.0 °F 81% 30.30 in 8.0 mi NNW 3.5 mph - N/A   Partly Cloudy
7:52 AM 33.1 °F 28.7 °F 25.0 °F 72% 30.32 in 10.0 mi NNW 4.6 mph - N/A   Partly Cloudy
8:52 AM 39.9 °F 34.5 °F 25.0 °F 55% 30.34 in 10.0 mi North 8.1 mph - N/A   Clear
9:52 AM 44.1 °F 38.1 °F 23.0 °F 43% 30.33 in 10.0 mi North 11.5 mph 20.7 mph N/A   Clear
10:52 AM 46.9 °F - 23.0 °F 39% 30.32 in 10.0 mi North 15.0 mph 20.7 mph N/A   Clear
11:52 AM 48.9 °F - 23.0 °F 36% 30.31 in 10.0 mi North 8.1 mph - N/A   Clear
12:52 PM 52.0 °F - 23.0 °F 32% 30.28 in 10.0 mi NNW 9.2 mph 16.1 mph N/A   Clear
1:52 PM 54.0 °F - 21.9 °F 29% 30.24 in 10.0 mi NNW 11.5 mph 17.3 mph N/A   Clear
2:52 PM 55.0 °F - 19.9 °F 25% 30.23 in 10.0 mi Variable 6.9 mph - N/A   Clear
3:52 PM 57.0 °F - 21.0 °F 25% 30.22 in 10.0 mi NW 10.4 mph - N/A   Clear
4:52 PM 55.9 °F - 19.9 °F 25% 30.22 in 10.0 mi North 9.2 mph - N/A   Clear
5:52 PM 54.0 °F - 21.0 °F 28% 30.22 in 10.0 mi NW 5.8 mph - N/A   Clear
6:52 PM 48.9 °F - 21.9 °F 35% 30.23 in 10.0 mi NNW 4.6 mph - N/A   Partly Cloudy
7:52 PM 44.1 °F 40.8 °F 23.0 °F 43% 30.25 in 10.0 mi North 5.8 mph - N/A   Clear
8:52 PM 46.0 °F 42.5 °F 24.1 °F 42% 30.27 in 10.0 mi NNW 6.9 mph - N/A   Clear
9:52 PM 43.0 °F 39.5 °F 24.1 °F 47% 30.30 in 10.0 mi North 5.8 mph - N/A   Clear
10:52 PM 41.0 °F 36.4 °F 25.0 °F 53% 30.31 in 10.0 mi North 6.9 mph - N/A   Clear
11:52 PM 42.1 °F 37.1 °F 24.1 °F 49% 30.30 in 10.0 mi NNE 8.1 mph - N/A   Clear